TimeEDT,TemperatureF,Dew PointF,Humidity,Sea Level PressureIn,VisibilityMPH,Wind Direction,Wind SpeedMPH,Gust SpeedMPH,PrecipitationIn,Events,Conditions,WindDirDegrees,DateUTC
12:53 AM,63.0,57.9,84,29.98,9.0,SW,13.8,-,0.09,Rain,Light Rain,220,2012-10-14 04:53:00
1:53 AM,64.9,60.1,84,29.96,10.0,SW,13.8,-,0.01,,Overcast,230,2012-10-14 05:53:00
2:53 AM,68.0,59.0,73,29.95,10.0,SW,17.3,27.6,N/A,,Overcast,220,2012-10-14 06:53:00
3:53 AM,66.9,57.9,73,29.94,10.0,SSW,15.0,23.0,N/A,,Partly Cloudy,210,2012-10-14 07:53:00
4:53 AM,66.0,57.0,73,29.94,10.0,SW,15.0,19.6,N/A,,Mostly Cloudy,220,2012-10-14 08:53:00
5:53 AM,68.0,57.9,70,29.93,10.0,SW,17.3,28.8,N/A,,Mostly Cloudy,220,2012-10-14 09:53:00
6:53 AM,66.9,57.9,73,29.93,10.0,SW,20.7,26.5,N/A,,Partly Cloudy,220,2012-10-14 10:53:00
7:53 AM,66.0,57.0,73,29.93,10.0,SSW,18.4,24.2,N/A,,Overcast,210,2012-10-14 11:53:00
8:53 AM,66.9,57.0,70,29.91,10.0,SSW,17.3,26.5,N/A,,Partly Cloudy,200,2012-10-14 12:53:00
9:53 AM,69.1,57.0,65,29.90,10.0,SSW,23.0,32.2,N/A,,Clear,210,2012-10-14 13:53:00
10:53 AM,69.1,57.0,65,29.88,10.0,SSW,20.7,31.1,N/A,,Partly Cloudy,210,2012-10-14 14:53:00
11:53 AM,72.0,57.0,59,29.84,10.0,SSW,18.4,24.2,N/A,,Scattered Clouds,200,2012-10-14 15:53:00
12:53 PM,71.1,57.0,61,29.80,10.0,South,19.6,31.1,N/A,,Clear,190,2012-10-14 16:53:00
1:53 PM,73.0,55.9,55,29.75,10.0,SSW,32.2,42.6,N/A,,Clear,210,2012-10-14 17:53:00
2:53 PM,75.0,55.9,51,29.73,10.0,SW,28.8,35.7,N/A,,Partly Cloudy,220,2012-10-14 18:53:00
3:53 PM,73.9,55.9,53,29.72,10.0,WSW,24.2,36.8,N/A,,Overcast,240,2012-10-14 19:53:00
4:53 PM,66.0,60.1,81,29.70,6.0,SSW,19.6,27.6,0.07,Rain,Light Rain,210,2012-10-14 20:53:00
5:53 PM,66.9,59.0,76,29.68,10.0,SSW,17.3,28.8,0.00,,Overcast,200,2012-10-14 21:53:00
6:53 PM,66.9,59.0,76,29.65,10.0,SSW,23.0,31.1,N/A,,Clear,200,2012-10-14 22:53:00
7:53 PM,64.9,60.1,84,29.63,10.0,South,16.1,-,0.03,,Mostly Cloudy,190,2012-10-14 23:53:00
8:53 PM,64.9,57.9,78,29.60,10.0,SSW,19.6,25.3,N/A,,Mostly Cloudy,200,2012-10-15 00:53:00
9:53 PM,66.9,57.0,70,29.58,10.0,SW,19.6,33.4,0.00,,Scattered Clouds,220,2012-10-15 01:53:00
10:53 PM,66.9,55.9,68,29.57,10.0,SW,24.2,38.0,N/A,,Clear,220,2012-10-15 02:53:00
11:53 PM,66.9,55.9,68,29.56,10.0,SW,28.8,39.1,N/A,,Overcast,230,2012-10-15 03:53:00